Regional Weather Roundup
Issued by NWS Grand Forks, ND

Home | Current Version | Previous Version | Text Only | Print | Product List | Glossary Off
Versions: 1 2 3 4 5 6 7 8 9 10 11 12 13 14 15 16 17 18 19 20 21 22 23 24 25 26 27 28 29 30 31 32 33 34 35 36 37 38 39 40 41 42 43 44 45 46 47 48 49 50

000
ASUS43 KFGF 210731
RWRFGF
PRAIRIE TO PINES  WEATHER ROUNDUP
NATIONAL WEATHER SERVICE EASTERN NORTH DAKOTA/GRAND FORKS ND
200 AM CDT TUE APR 21 2015

 **SATELLITE DATA USED TO AUGMENT SKY COVER AT AUTOMATED STATIONS**
 *****  WEATHER ACROSS EASTERN NORTH DAKOTA  *****

CITY           SKY/WX    TMP DP  RH WIND       PRES   REMARKS
GRAND FORKS    FLURRIES  34  28  80 N26G35    29.62S WCI  21
GRAND FRKS AFB CLOUDY    34  27  75 N20G26    29.63S WCI  23
GRAND FRKS NWS   N/A     32 N/A N/A NW16        N/A  WCI  21
DEVILS LAKE    CLOUDY    36  23  60 N26G36    29.70S
FARGO          CLOUDY    35  25  66 NW20G29   29.63F WCI  24
WAHPETON ARPT  CLOUDY    32  28  86 NW14G26   29.65R WCI  22
$$

 ***** WEATHER ACROSS CENTRAL AND WESTERN NORTH DAKOTA  *****

CITY           SKY/WX    TMP DP  RH WIND       PRES   REMARKS
BISMARCK       CLOUDY    38  15  39 N10       29.78S
MINOT          CLOUDY    35  23  61 NW8       29.81S
JAMESTOWN      CLEAR     30  24  78 NW12      29.71S WCI  20
MINOT AFB      CLOUDY    35  25  67 NW7       29.80S
GARRISON         N/A     36  25  64 NE16G25   29.80R
WILLISTON      CLOUDY    37  21  52 NE9       29.85R
DICKINSON      MOCLDY    34  17  50 NW8       29.78R
HETTINGER      PTCLDY    26  15  63 CALM      29.79F
$$

 *****  OTHER AIRPORT OBSERVATIONS IN OUR AREA  *****

CITY           SKY/WX    TMP DP  RH WIND       PRES   REMARKS
WALHALLA       LGT RAIN  32  32 100 NW16G25   29.67S WCI  21
GRAFTON AIRPOR CLOUDY    34  30  86 NW21G38   29.64S WCI  22
VALLEY CITY AR MIX PCPN  32  28  86 NW16G23   29.68F WCI  21
CANDO          CLOUDY    32  25  74 N24G31    29.73S WCI  19
CAVALIER APRT  CLOUDY    32  30  93 NW17G26   29.65S WCI  21
GWINNER        MOSUNNY   34  27  75 NW15      29.70S WCI  24
SHEYENNE NWR     N/A     35  26  68 NW13      29.95S
ROLLA          CLOUDY    32  25  74 N18G25    29.75R WCI  20
 ***** THE ABOVE OBSERVATIONS ARE NON NWS ARE NOT QUALITY
       CONTROLLED AND MAY MIS-REPORT RAIN FOR SNOW...
$$

  *****  WEATHER ACROSS NORTHERN MINNESOTA  *****

CITY           SKY/WX    TMP DP  RH WIND       PRES   REMARKS
FLAG ISLAND    CLOUDY    30  27  86 N28G37    29.46S WCI  16
WARROAD        FLURRIES  30  27  86 NW14G23   29.49F WCI  20
ROSEAU         CLOUDY    32  27  80 NW17      29.51F WCI  21
HALLOCK        FLURRIES  34  30  86 NW23G29   29.59F WCI  22
THF RVR FALLS  CLOUDY    32  27  80 NW20G29   29.55F WCI  20
BAUDETTE       LGT SNOW  31  28  89 NW17G25   29.43S FOG     WCI  19
WASKISH        CLOUDY    30  28  93 W16G24    29.44F WCI  19
CROOKSTON      CLOUDY    34  30  86 N22       29.60F WCI  22
$$
  *****  WEATHER ACROSS CENTRAL AND WEST MINNESOTA  *****

CITY           SKY/WX    TMP DP  RH WIND       PRES   REMARKS
FOSSTON        CLOUDY    28  27  93 NW16G24   29.54F WCI  17
BEMIDJI        FLURRIES  30  26  85 NW18G26   29.48S WCI  17
PARK RAPIDS    CLOUDY    35  23  61 NW18      29.50S WCI  24
ELBOW LAKE     CLOUDY    32  28  85 NW20G26   29.61S WCI  20
WADENA         MIX PCPN  30  25  80 NW18G28   29.53S WCI  18
DETROIT LAKES  MIX PCPN  32  28  86 NW18G28   29.57F WCI  20
MOORHEAD       CLOUDY    34  27  75 NW17G28   29.63F WCI  23
FERGUS FALLS   CLOUDY    32  25  74 NW20G31   29.63S WCI  20
MORRIS MN      CLOUDY    34  30  86 NW15G22   29.62S WCI  24
STAPLES        CLOUDY    30  25  80 NW13      29.52S WCI  20
$$
  *****  WEATHER ELSEWHERE ACROSS MINNESOTA  *****

CITY           SKY/WX    TMP DP  RH WIND       PRES   REMARKS
DULUTH         LGT SNOW  32  28  85 W17G25    29.34S FOG     WCI  21
INTRNTL FALLS  LGT SNOW  31  28  89 NW12      29.37S FOG     WCI  22
ELY            LGT SNOW  30  30 100 W8        29.28F WCI  23
CLOQUET        CLOUDY    32  27  80 W17G24    29.37F WCI  21
WHEATON        CLOUDY    34  27  75 W18G24    29.67S WCI  23
BRAINERD       MOCLDY    31  25  78 NW12G20   29.49F WCI  22
HIBBING        LGT SNOW  31  26  82 NW12G23   29.36F WCI  22
ALEXANDRIA     CLOUDY    33  24  69 NW28G37   29.57F WCI  20
SAINT CLOUD    CLOUDY    34  25  69 NW17      29.52F WCI  23
MINNEAPOLIS    CLOUDY    36  27  69 NW21G30   29.54S
$$

  *****  WEATHER ACROSS SOUTH DAKOTA  *****

CITY           SKY/WX    TMP DP  RH WIND       PRES   REMARKS
SIOUX FALLS    CLEAR     32  22  66 W8        29.73F WCI  25
BROOKINGS      CLEAR     30  25  80 W7        29.71S WCI  23
WATERTOWN      CLEAR     30  25  81 W9        29.68S WCI  22
HURON          CLEAR     28  14  55 W12       29.76S WCI  18
SISSETON         N/A     35  28  75 N15       29.66S
ABERDEEN       CLEAR     32  18  56 NW9       29.74R WCI  24
MITCHELL       CLEAR     31  11  43 W8        29.79S WCI  23
PIERRE         CLEAR     34  22  61 W9        29.80F
MOBRIDGE       CLEAR     31  20  63 NW5       29.76S
RAPID CITY     CLEAR     33  21  61 W5        29.88F
$$

  *****  SOME WEATHER IN NEARBY STATES *****

CITY           SKY/WX    TMP DP  RH WIND       PRES   REMARKS
GLASGOW MT     CLEAR     38  21  50 S6        29.75F
GREAT FALLS MT CLEAR     39  28  64 N5        29.84S
CHEYENNE WY    PTCLDY    33  23  66 NW7       29.96R
SCOTTSBLUFF NE CLEAR     34  27  75 N8        29.92S
OMAHA NE       CLOUDY    47  21  35 W10       29.79F
DES MOINES IA  CLEAR     39  22  50 W6        29.73S
DAVENPORT IA   CLEAR     38  30  73 W14       29.67F
CHICAGO IL     PTCLDY    42  32  67 W10G21    29.60F
EAU CLAIRE WI  CLOUDY    36  29  75 W13G25    29.46F
LA CROSSE WI   CLOUDY    40  32  73 W15       29.52S
$$

  *****  SOME NATIONAL WEATHER *****

CITY           SKY/WX    TMP DP  RH WIND       PRES   REMARKS
LA GUARDIA NY  LGT RAIN  54  54 100 NW3       29.57R FOG
RALEIGH NC     PTCLDY    63  61  93 W5        29.72R
ATLANTA GA     CLEAR     56  44  64 NW9       29.90S
NEW ORLEANS LA MOCLDY    65  49  56 N7        29.97S
OKLAHOMA CITY  CLOUDY    50  43  77 S3        29.99S
ALBUQUERQUE NM MOCLDY    54  24  31 SE8       29.97F
SALT LAKE CITY CLEAR     53  26  35 S9        29.88R
LOS ANGELES CA MOCLDY    57  52  83 CALM      29.92R
BOISE ID       CLEAR     50  31  48 SE5       29.82R
SEATTLE WA     PTCLDY    60  42  51 NE14      29.86S
$$

*** WEATHER ACROSS MANITOBA...SASKATCHEWAN AND ONTARIO ***
                ***ONTARIO***

CITY           SKY/WX    TMP DP  RH WIND       PRES   REMARKS
GERALDTON      LGT SNOW  30  28  93 W8        29.10S WCI  23
THUNDER BAY    LGT RAIN  34  34 100 W7        29.20S
SIOUX LOOKOUT  LGT SNOW  27  25  93 N12G20    29.32R VSB 1   WCI  16
TORONTO        MOCLDY    45  36  70 SW9       29.55S
BIG TROUT LK   LGT SNOW  21  19  93 N18G29    29.49S WCI   6
PICKLE LAKE    NOT AVBL
DRYDEN         LGT SNOW  27  27 100 N10G17    29.34R WCI  17
KENORA         LGT SNOW  28  25  86 N12G24    29.43S FOG     WCI  18
$$
                *** MANITOBA***

CITY           SKY/WX    TMP DP  RH WIND       PRES   REMARKS
BRANDON        MOCLDY    34  27  75 N16G24    29.79S WCI  23
DAUPHIN        CLOUDY    34  27  75 N15G23    29.86R WCI  24
ISLAND LAKE    LGT SNOW  23  16  74 N12G23    29.80R DRFTSNOWWCI  12
PILOT MOUND      N/A     32  27  80 N23G32      N/A  WCI  19
THE PAS        PTCLDY    28  25  86 VRB2      29.97R
THOMPSON       PTCLDY    23  19  86 NE5       30.01S WCI  17
WINNIPEG       FLURRIES  32  28  86 N18G25    29.65R WCI  20
LYNN LAKE      MOCLDY    27  21  80 SE3       30.00S
CHURCHILL      FLURRIES  18  16  93 NE17G23   30.14S WCI   2
GILLAM         FLURRIES  21  18  86 N21       30.00S WCI   6
$$
                ***SASKATCHEWAN***

CITY           SKY/WX    TMP DP  RH WIND       PRES   REMARKS
ESTEVAN        CLOUDY    32  30  93 SW3       29.85
KINDERSLEY     CLEAR     32  27  80 E18       29.86R WCI  20
LLOYDMINSTER   PTCLDY    34  28  80 S10G17    29.91R
PRINCE ALBERT  PTCLDY    25  21  86 E2        29.95R
REGINA         MOCLDY    34  28  80 NW3       29.89R
YORKTON        CLEAR     27  23  86 N6        29.89R WCI  20
N. BATTLEFORD  CLEAR     27  27 100 E2        29.96R
LA RONGE       PTCLDY    25  16  68 NE3       29.97R
SASKATOON      PTCLDY    28  27  93 N5        29.95R WCI  23
SWIFT CURRENT  CLEAR     32  27  80 E13       29.82R WCI  22
$$
NOTE: THESE ARE AUTOMATED STATIONS WITH LIMITED QUALITY CONTROL
      "FAIR" INDICATES FEW OR NO CLOUDS BELOW 12,000 FEET WITH NO
      SIGNIFICANT WEATHER AND/OR OBSTRUCTIONS TO VISIBILITY.
      SKY/WX - SKY CONDITION AND SIGNIFICANT WEATHER.
      TMP - AIR TEMPERATURE.    DP   - DEWPOINT TEMPERATURE.
      RH  - RELATIVE HUMIDITY.  PRES - PRESSURE.
      HX  - HEAT INDEX.         WCI  - WIND CHILL INDEX.
$


USA.gov is the U.S. government's official web portal to all federal, state and local government web resources and services.